REFLECTOR

导读

REFLECTOR卫星由独联体(CIS)于2001年12月10日08:00发射升空,名称直译为“反射器”,大概率搭载反射类航天载荷,核心功能聚焦电磁信号反射/聚焦,可服务于通信、天文观测或对地探测任务。反射类载荷是该卫星技术核心,需在太空极端环境下稳定工作,支撑航天任务的信号传输与观测需求。

基本信息
目录编号:
27005
目录名称:
REFLECTOR
国际标识:
2001-056E
轨道中心:
EARTH
卫星名称:
REFLECTOR
卫星全名:
--
卫星状态:
在轨 (已飞行8982 天)
发射日期:
2001-12-10 UTC
国别 :
俄罗斯(独联体) (CIS)
星等 :
--
轨道信息
数据来源 国际轨道数据
星历时间: 2026-07-14T04:58:33+0800
8小时前
查看轨道信息
半长轴: 7372.489km
偏心率: 0.0019037
轨道倾角: 99.767°
近地点辐角 47.851°
升交点赤经 5.682°
平近点角 312.425°
近地点: 980.316km
远地点: 1008.388km
周期: 104.998分钟
每日圈数: 13.714552
详细信息
使用方式:
暂无
2D轨道图
3D轨道图
轨道高度分析图
轨道倾角分析图
轨道综合分析图
查看轨道综合分析图